Location: Central Falls
(41.8900°N, 71.3929°W)
Time: 04:03:36
(UTC+00:00)

Vanguard 2 - Pass Details

Date: 05 December 2023
Orbit: 554 x 2918 km, 32.9° (Epoch: 01 March)

Event Time Altitude Azimuth Distance (km) Brightness Sun altitude
Rises 05:56:33 0° 271° (W) 6,273 - -64.2°
Reaches altitude 10° 06:01:25 10° 266° (W) 4,949 - -63.5°
Maximum altitude 06:13:27 43° 202° (SSW) 2,204 - -61.8°
Drops below altitude 10° 06:20:59 10° 134° (SE) 3,134 - -60.6°
Sets 06:23:24 0° 126° (SE) 3,838 - -60.2°
